Wooster, OH

3:42 AM EST on February 25, 2018 (GMT -0500)
Wayne County

Weather History for KBJJ - October, 2013

Change the Weather History Date:

Wednesday, October 9, 2013

  Actual Average Record
Temperature  
Mean Temperature 54 °F -  
Max Temperature 69 °F 63 °F 81 °F (1997)
Min Temperature 39 °F 39 °F 19 °F (2003)
Degree Days  
Heating Degree Days 12    
Growing Degree Days 4 (Base 50)    
Moisture  
Dew Point 41 °F    
Average Humidity 72    
Maximum Humidity 96    
Minimum Humidity 36    
Precipitation  
Precipitation 0.00 in - - ()
Sea Level Pressure  
Sea Level Pressure 30.29 in    
Wind  
Wind Speed 2 mph (ESE)    
Max Wind Speed 10 mph    
Max Gust Speed -    
Visibility 10 miles    
Events      
Averages and records for this station are not official NWS values.
T = Trace of Precipitation, MM = Missing Value Source: NWS Daily Summary

Daily Weather History Graph

Daily Weather History Graph

Search for Another Location

Airport or City:

Trip Planner

Search our weather history database for the weather conditions in past years. The results will help you decide how hot, cold, wet, or windy it might be!

Date:

Astronomy

Oct. 09, 2013 Rise Set
Actual Time 7:32 AM EDT 6:56 PM EDT
Civil Twilight 7:05 AM EDT 7:23 PM EDT
Nautical Twilight 6:33 AM EDT 7:55 PM EDT
Astronomical Twilight 6:01 AM EDT 8:27 PM EDT
Moon 12:28 PM EDT (10/9) 10:27 PM EDT (10/9)
Length of Visible Light 12h 18m
Length of Day
11h 23m
Waxing Crescent, 25% of the Moon is Illuminated
Oct 9
Waxing Crescent
Oct 11
First Quarter
Oct 18
Full
Oct 26
Last Quarter
Nov 3
New

Hourly Weather History & Observations

Time (EDT) Temp. Windchill Dew Point Humidity Pressure Visibility Wind Dir Wind Speed Gust Speed Precip Events Conditions
12:56 AM 44.1 °F - 41.0 °F 89% 30.30 in 10.0 mi Calm Calm - N/A   Clear
1:56 AM 42.1 °F - 39.9 °F 92% 30.29 in 10.0 mi Calm Calm - N/A   Clear
2:56 AM 42.1 °F - 39.9 °F 92% 30.29 in 10.0 mi Calm Calm - N/A   Clear
3:56 AM 39.9 °F 37.8 °F 37.9 °F 93% 30.28 in 10.0 mi East 3.5 mph - N/A   Clear
4:56 AM 41.0 °F - 39.0 °F 93% 30.28 in 10.0 mi Calm Calm - N/A   Clear
5:56 AM 39.0 °F - 37.9 °F 96% 30.30 in 9.0 mi Calm Calm - N/A   Clear
6:56 AM 39.0 °F - 37.9 °F 96% 30.31 in 9.0 mi Calm Calm - N/A   Clear
7:56 AM 39.9 °F - 37.0 °F 89% 30.33 in 7.0 mi Calm Calm - N/A   Clear
8:56 AM 50.0 °F - 45.0 °F 83% 30.34 in 10.0 mi East 6.9 mph - N/A   Clear
9:56 AM 53.1 °F - 45.0 °F 74% 30.34 in 10.0 mi ESE 8.1 mph - N/A   Clear
10:56 AM 59.0 °F - 45.0 °F 60% 30.34 in 10.0 mi SE 10.4 mph - N/A   Clear
11:56 AM 62.1 °F - 42.1 °F 48% 30.33 in 10.0 mi SE 10.4 mph - N/A   Clear
12:56 PM 64.0 °F - 43.0 °F 46% 30.32 in 10.0 mi SE 6.9 mph - N/A   Clear
1:56 PM 66.0 °F - 42.1 °F 42% 30.29 in 10.0 mi ESE 9.2 mph - N/A   Clear
2:56 PM 68.0 °F - 43.0 °F 40% 30.27 in 10.0 mi East 8.1 mph - N/A   Clear
3:56 PM 68.0 °F - 41.0 °F 37% 30.25 in 10.0 mi ESE 4.6 mph - N/A   Clear
4:56 PM 68.0 °F - 39.9 °F 36% 30.25 in 10.0 mi SE 6.9 mph - N/A   Clear
5:56 PM 66.9 °F - 39.9 °F 37% 30.25 in 10.0 mi SE 5.8 mph - N/A   Clear
6:56 PM 57.9 °F - 44.1 °F 60% 30.25 in 10.0 mi Calm Calm - N/A   Clear
7:56 PM 51.1 °F - 45.0 °F 80% 30.25 in 10.0 mi Calm Calm - N/A   Clear
8:56 PM 48.0 °F - 44.1 °F 86% 30.25 in 10.0 mi Calm Calm - N/A   Clear
9:56 PM 46.0 °F - 43.0 °F 89% 30.26 in 10.0 mi Calm Calm - N/A   Clear
10:56 PM 46.9 °F - 42.1 °F 83% 30.25 in 10.0 mi Calm Calm - N/A   Clear
11:56 PM 45.0 °F - 41.0 °F 86% 30.24 in 10.0 mi Calm Calm - N/A   Clear